sat.trackr.live / text

‹ back to catalog

BEIDOU-3 IGSO-2 (C39)

NORAD 44337 · 2019-035A

PAYLOAD ACTIVE UNKNOWN

§ Identity

Operator
Country
PRC
Launch date
2019-06-24
Launch site
XICLF
Launch vehicle
Mass (kg)
RCS (m²)

Purposes: comms, nav

External: N2YO · Heavens-Above · Gunter

§ Orbital elements

Epoch: 2026-09-11T10:59:48.652800Z

Period
1,436.07 min
Inclination
55.2503°
Eccentricity
0.0038652
Mean motion
1.00273492 rev/d
Perigee alt
35,623.1 km
Apogee alt
35,949.1 km
Semi-major
42,164.3 km
B*
0.0000e+0
RAAN
158.1052°
Arg perigee
211.3311°
Mean anomaly
265.7860°
Rev number
2,653

§ Raw data

BEIDOU-3 IGSO-2 (C39)1 44337U 19035A   26254.45820200 -.00000155  00000+0  00000+0 0  99992 44337  55.2503 158.1052 0038652 211.3311 265.7860  1.00273492 26539

JSON: /api/v1/satellites/44337 · /tle

For live sub-satellite position, see the globe view (requires WebGL).

§ Visibility from observer

Set your observer location to see the next 7 days of passes ≥ 10°. The values pass through the URL so the page stays shareable.

No JS? Fill the form by hand. The geolocation button needs JavaScript.